{"data":{"norad_id":41340,"epoch":"2026-05-24T14:51:13.996800Z","epoch_age_seconds":114747,"freshness":"FRESH","line1":"1 41340U 16012D   26144.61891200  .00192082  00000+0  90024-3 0  9995","line2":"2 41340  30.9873 250.1302 0003366 119.9378 240.1614 15.81556741567068","mean_motion":15.81556741,"eccentricity":0.0003366,"inclination_deg":30.9873,"raan_deg":250.1302,"arg_perigee_deg":119.9378,"mean_anomaly_deg":240.1614,"bstar":0.00090024,"rev_number":56706,"period_min":91.049531304802,"perigee_km":323.78107719617,"apogee_km":328.29432760583,"semimajor_km":6704.174702401,"source":"CELESTRAK","updated_at":"2026-05-25T13:38:25.527990Z"}}